Location: Betzi
(47.2343°N, 9.5260°E)
Time: 22:59:58
(UTC+00:00)

USA 305 - Pass Details

Date: 27 May 2022
Orbit: 549 x 553 km, 54.0° (Epoch: 14 June)

Event Time Altitude Azimuth Distance (km) Brightness Sun altitude
Exits shadow 00:58:13 22° 263° (W) 1,228 4.3 -17.9°
Maximum altitude 01:00:42 58° 335° (NNW) 647 3.3 -17.8°
Drops below altitude 10° 01:04:48 10° 56° (NE) 1,828 6.4 -17.5°
Sets 01:07:04 0° 60° (ENE) 2,723 7.3 -17.3°
